Location: Newark
(59.4564°N, 26.6917°E)
Time: 03:39:16
(UTC+00:00)

S-56A Canister/Altair - Pass Details

Date: 20 November 2019
Orbit: 633 x 2499 km, 38.9° (Epoch: 10 December)

Event Time Altitude Azimuth Distance (km) Brightness Sun altitude
Rises 16:59:29 0° 237° (WSW) 4,661 12.4 -24.6°
Reaches altitude 10° 17:04:56 10° 213° (SSW) 3,217 11.0 -25.3°
Maximum altitude 17:08:09 13° 188° (S) 2,715 10.3 -25.7°
Enters shadow 17:10:20 11° 168° (SSE) 2,670 10.1 -26.0°
Drops below altitude 10° 17:10:58 10° 162° (SSE) 2,709 - -26.0°
Sets 17:14:45 0° 135° (SE) 3,359 - -26.5°
